Starlink 11479

operational
NORAD ID: 62270 Int'l Des: 2024-237 Owner: SPXS Country: US Constellation: starlink
LEOCIRCULAR

关于 Starlink 11479

正在加载描述...

实时位置

正在加载3D地球...

即将过境

高度历史

Altitude vs Time

uPlot chart will show altitude changes over time

两行轨道根数

1 62270U 24237D 25258.40252041 .00508253 00000-0 36813-2 0 9991
2 62270 43.0000 33.2316 0002837 264.5304 95.5241 15.71137440 45488
Epoch: Sep 15, 2025 • Age: 15 hours

当前状态

高度 365.4 km
速度 7.69 km/s
星下点 -43.12°S, 66.72°W
发射日期 Dec 8, 2024
运行时间 0.7 years
类型 internet

技术详情

分类 Payload
质量 960.00 kg
干质量 910.00 kg
总质量 960.00 kg
长度 0.30 m
直径 4.10 m
跨度 29.00 m
形状 Box + pan
制造商 SPXS
平台类型 Starlink V2MD
阶段状态 In Orbit
所有者/国家 SPXS/US

大型星座

Loading constellations...